User: anonymous   Login
Location: Pilipovskiye Korichintsy
(49.1833°N, 27.4667°E)
Time: 17:45:07
(UTC+00:00)
Language:

SeaSat 1 - Orbit

View from above orbital plane
View from above orbital plane
View from above satellite
View from above satellite

Ground track
Ground track

The orbit data is extracted from the following two-line orbital elements,

1 10967U 78064A   20263.27870678 -.00000076  00000-0  17989-4 0  9998
2 10967 108.0076 267.0494 0003010 271.5201  88.5599 14.43835568218362
Epoch (UTC): 19 September 2020 06:41:20
Eccentricity: 0.0003010
inclination: 108.0076°
perigee height: 744 km
apogee height: 748 km
right ascension of ascending node: 267.0494°
argument of perigee: 271.5201°
revolutions per day: 14.43835568
mean anomaly at epoch: 88.5599°
orbit number at epoch: 21836

The dashed part of the orbit path shows where the satellite is in the earth's shadow,  

DLR